Time,TemperatureF,DewpointF,PressureIn,WindDirection,WindDirectionDegrees,WindSpeedMPH,WindSpeedGustMPH,Humidity,HourlyPrecipIn,Conditions,Clouds,dailyrainin,SoftwareType,DateUTC
2013-11-19 00:13:00,54.1,34.0,30.15,East,85,0.0,0.0,46,0.00,,,0.00,weatherlink.com 1.10,2013-11-19 07:13:00,
2013-11-19 00:28:00,53.5,34.0,30.14,East,85,0.0,0.0,47,0.00,,,0.00,weatherlink.com 1.10,2013-11-19 07:28:00,
2013-11-19 00:43:00,53.4,33.0,30.14,East,85,0.0,0.0,47,0.00,,,0.00,weatherlink.com 1.10,2013-11-19 07:43:00,
2013-11-19 00:58:00,52.7,34.0,30.14,East,85,0.0,0.0,49,0.00,,,0.00,weatherlink.com 1.10,2013-11-19 07:58:00,
2013-11-19 01:13:00,52.4,34.0,30.14,East,85,0.0,0.0,50,0.00,,,0.00,weatherlink.com 1.10,2013-11-19 08:13:00,
2013-11-19 01:28:00,52.1,35.0,30.14,East,85,0.0,0.0,52,0.00,,,0.00,weatherlink.com 1.10,2013-11-19 08:28:00,
2013-11-19 01:43:00,51.9,34.0,30.12,East,85,1.0,8.0,51,0.00,,,0.00,weatherlink.com 1.10,2013-11-19 08:43:00,
2013-11-19 01:58:00,52.4,35.0,30.12,East,85,1.0,7.0,51,0.00,,,0.00,weatherlink.com 1.10,2013-11-19 08:58:00,
2013-11-19 02:13:00,52.6,34.0,30.12,East,85,6.0,7.0,49,0.00,,,0.00,weatherlink.com 1.10,2013-11-19 09:13:00,
2013-11-19 02:28:00,52.5,34.0,30.12,East,85,0.0,6.0,49,0.00,,,0.00,weatherlink.com 1.10,2013-11-19 09:28:00,
2013-11-19 02:43:00,52.1,34.0,30.12,East,85,0.0,2.0,51,0.00,,,0.00,weatherlink.com 1.10,2013-11-19 09:43:00,
2013-11-19 02:58:00,51.4,34.0,30.11,East,85,0.0,3.0,52,0.00,,,0.00,weatherlink.com 1.10,2013-11-19 09:58:00,
2013-11-19 03:13:00,51.5,34.0,30.11,East,85,0.0,2.0,52,0.00,,,0.00,weatherlink.com 1.10,2013-11-19 10:13:00,
2013-11-19 03:28:00,50.9,35.0,30.11,East,85,0.0,0.0,54,0.00,,,0.00,weatherlink.com 1.10,2013-11-19 10:28:00,
2013-11-19 03:43:00,50.4,35.0,30.11,East,85,5.0,6.0,55,0.00,,,0.00,weatherlink.com 1.10,2013-11-19 10:43:00,
2013-11-19 03:58:00,50.1,34.0,30.11,East,85,0.0,6.0,55,0.00,,,0.00,weatherlink.com 1.10,2013-11-19 10:58:00,
2013-11-19 04:13:00,50.0,35.0,30.11,East,85,2.0,6.0,56,0.00,,,0.00,weatherlink.com 1.10,2013-11-19 11:13:00,
2013-11-19 04:28:00,50.1,35.0,30.11,East,85,0.0,6.0,56,0.00,,,0.00,weatherlink.com 1.10,2013-11-19 11:28:00,
2013-11-19 04:43:00,49.8,35.0,30.10,East,85,7.0,7.0,57,0.00,,,0.00,weatherlink.com 1.10,2013-11-19 11:43:00,
2013-11-19 04:58:00,49.7,35.0,30.09,East,85,3.0,7.0,57,0.00,,,0.00,weatherlink.com 1.10,2013-11-19 11:58:00,
2013-11-19 05:13:00,49.6,35.0,30.09,East,92,8.0,9.0,57,0.00,,,0.00,weatherlink.com 1.10,2013-11-19 12:13:00,
2013-11-19 05:28:00,50.2,35.0,30.09,ESE,110,4.0,10.0,56,0.00,,,0.00,weatherlink.com 1.10,2013-11-19 12:28:00,
2013-11-19 05:43:00,51.0,35.0,30.09,ESE,112,3.0,9.0,54,0.00,,,0.00,weatherlink.com 1.10,2013-11-19 12:43:00,
2013-11-19 05:59:00,51.5,35.0,30.09,ESE,116,3.0,8.0,53,0.00,,,0.00,weatherlink.com 1.10,2013-11-19 12:59:00,
2013-11-19 06:13:00,51.9,35.0,30.10,ESE,118,7.0,9.0,53,0.00,,,0.00,weatherlink.com 1.10,2013-11-19 13:13:00,
2013-11-19 06:28:00,52.4,36.0,30.10,SE,126,8.0,9.0,53,0.00,,,0.00,weatherlink.com 1.10,2013-11-19 13:28:00,
2013-11-19 06:43:00,52.9,35.0,30.10,SE,135,2.0,10.0,52,0.00,,,0.00,weatherlink.com 1.10,2013-11-19 13:43:00,
2013-11-19 06:58:00,53.5,36.0,30.10,SE,140,3.0,11.0,51,0.00,,,0.00,weatherlink.com 1.10,2013-11-19 13:58:00,
2013-11-19 07:13:00,54.2,36.0,30.10,SE,139,7.0,11.0,51,0.00,,,0.00,weatherlink.com 1.10,2013-11-19 14:13:00,
2013-11-19 07:28:00,54.9,36.0,30.10,SE,144,5.0,10.0,50,0.00,,,0.00,weatherlink.com 1.10,2013-11-19 14:28:00,
2013-11-19 07:43:00,55.5,36.0,30.09,SSE,147,8.0,12.0,49,0.00,,,0.00,weatherlink.com 1.10,2013-11-19 14:43:00,
2013-11-19 07:58:00,56.0,37.0,30.09,SSE,154,6.0,14.0,49,0.00,,,0.00,weatherlink.com 1.10,2013-11-19 14:58:00,
2013-11-19 08:13:00,56.9,37.0,30.09,SSE,155,11.0,15.0,48,0.00,,,0.00,weatherlink.com 1.10,2013-11-19 15:13:00,
2013-11-19 08:28:00,57.1,37.0,30.09,SSE,156,9.0,16.0,48,0.00,,,0.00,weatherlink.com 1.10,2013-11-19 15:28:00,
2013-11-19 08:43:00,57.6,38.0,30.09,SSE,148,7.0,13.0,48,0.00,,,0.00,weatherlink.com 1.10,2013-11-19 15:43:00,
2013-11-19 08:58:00,58.2,38.0,30.08,SSE,160,7.0,12.0,47,0.00,,,0.00,weatherlink.com 1.10,2013-11-19 15:58:00,
2013-11-19 09:14:00,59.0,39.0,30.08,SSE,162,4.0,17.0,47,0.00,,,0.00,weatherlink.com 1.10,2013-11-19 16:14:00,
2013-11-19 09:29:00,59.5,39.0,30.08,SSE,161,7.0,18.0,46,0.00,,,0.00,weatherlink.com 1.10,2013-11-19 16:29:00,
2013-11-19 09:44:00,59.8,39.0,30.07,SSE,164,8.0,13.0,46,0.00,,,0.00,weatherlink.com 1.10,2013-11-19 16:44:00,
2013-11-19 09:59:00,60.5,39.0,30.07,SSE,157,6.0,12.0,46,0.00,,,0.00,weatherlink.com 1.10,2013-11-19 16:59:00,
2013-11-19 10:14:00,60.7,40.0,30.06,SSE,162,6.0,12.0,46,0.00,,,0.00,weatherlink.com 1.10,2013-11-19 17:14:00,
2013-11-19 10:29:00,60.9,40.0,30.05,SSE,157,2.0,15.0,46,0.00,,,0.00,weatherlink.com 1.10,2013-11-19 17:29:00,
2013-11-19 10:44:00,61.1,41.0,30.04,SSE,155,9.0,14.0,47,0.00,,,0.00,weatherlink.com 1.10,2013-11-19 17:44:00,
2013-11-19 10:59:00,61.4,41.0,30.03,SSE,160,6.0,11.0,47,0.00,,,0.00,weatherlink.com 1.10,2013-11-19 17:59:00,
2013-11-19 11:14:00,62.0,41.0,30.02,SSE,152,1.0,12.0,46,0.00,,,0.00,weatherlink.com 1.10,2013-11-19 18:14:00,
2013-11-19 11:29:00,62.4,42.0,30.00,SSE,166,1.0,13.0,47,0.00,,,0.00,weatherlink.com 1.10,2013-11-19 18:29:00,
2013-11-19 11:44:00,63.2,41.0,29.99,SSE,156,4.0,13.0,45,0.00,,,0.00,weatherlink.com 1.10,2013-11-19 18:44:00,
2013-11-19 11:59:00,63.4,42.0,29.98,South,178,7.0,14.0,46,0.00,,,0.00,weatherlink.com 1.10,2013-11-19 18:59:00,
2013-11-19 12:14:00,64.1,43.0,29.97,SE,138,14.0,14.0,46,0.00,,,0.00,weatherlink.com 1.10,2013-11-19 19:14:00,
2013-11-19 12:29:00,64.2,42.0,29.95,SE,141,11.0,15.0,45,0.00,,,0.00,weatherlink.com 1.10,2013-11-19 19:29:00,
2013-11-19 12:44:00,64.1,43.0,29.94,SSE,148,8.0,20.0,46,0.00,,,0.00,weatherlink.com 1.10,2013-11-19 19:44:00,
2013-11-19 12:59:00,65.0,43.0,29.94,SSE,155,6.0,15.0,45,0.00,,,0.00,weatherlink.com 1.10,2013-11-19 19:59:00,
2013-11-19 13:14:00,65.6,44.0,29.93,SSE,162,2.0,14.0,45,0.00,,,0.00,weatherlink.com 1.10,2013-11-19 20:14:00,
2013-11-19 13:29:00,66.7,45.0,29.92,South,173,3.0,12.0,45,0.00,,,0.00,weatherlink.com 1.10,2013-11-19 20:29:00,
2013-11-19 13:44:00,67.1,44.0,29.91,SSE,162,7.0,13.0,44,0.00,,,0.00,weatherlink.com 1.10,2013-11-19 20:44:00,
2013-11-19 13:59:00,67.3,45.0,29.91,South,178,7.0,14.0,45,0.00,,,0.00,weatherlink.com 1.10,2013-11-19 20:59:00,
2013-11-19 14:14:00,67.5,44.0,29.89,SSE,157,4.0,18.0,43,0.00,,,0.00,weatherlink.com 1.10,2013-11-19 21:14:00,
2013-11-19 14:29:00,67.0,43.0,29.89,SSE,147,4.0,14.0,42,0.00,,,0.00,weatherlink.com 1.10,2013-11-19 21:29:00,
2013-11-19 14:44:00,67.9,44.0,29.89,SE,135,0.0,16.0,43,0.00,,,0.00,weatherlink.com 1.10,2013-11-19 21:44:00,
2013-11-19 14:59:00,67.8,44.0,29.88,SSE,150,0.0,15.0,43,0.00,,,0.00,weatherlink.com 1.10,2013-11-19 21:59:00,
2013-11-19 15:15:00,67.7,44.0,29.88,SSE,156,3.0,15.0,42,0.00,,,0.00,weatherlink.com 1.10,2013-11-19 22:15:00,
2013-11-19 15:30:00,66.4,43.0,29.88,SE,144,5.0,14.0,43,0.00,,,0.00,weatherlink.com 1.10,2013-11-19 22:30:00,
2013-11-19 15:45:00,66.5,44.0,29.87,SE,139,7.0,14.0,44,0.00,,,0.00,weatherlink.com 1.10,2013-11-19 22:45:00,
2013-11-19 16:00:00,66.3,44.0,29.87,SE,137,3.0,16.0,44,0.00,,,0.00,weatherlink.com 1.10,2013-11-19 23:00:00,
2013-11-19 16:15:00,65.5,43.0,29.86,SSE,149,5.0,17.0,45,0.00,,,0.00,weatherlink.com 1.10,2013-11-19 23:15:00,
2013-11-19 16:30:00,64.5,43.0,29.87,SSE,152,5.0,16.0,46,0.00,,,0.00,weatherlink.com 1.10,2013-11-19 23:30:00,
2013-11-19 16:45:00,63.8,43.0,29.86,SE,144,4.0,16.0,47,0.00,,,0.00,weatherlink.com 1.10,2013-11-19 23:45:00,
2013-11-19 17:00:00,63.2,43.0,29.87,SE,137,8.0,15.0,48,0.00,,,0.00,weatherlink.com 1.10,2013-11-20 00:00:00,
2013-11-19 17:15:00,62.5,42.0,29.87,SE,139,7.0,14.0,48,0.00,,,0.00,weatherlink.com 1.10,2013-11-20 00:15:00,
2013-11-19 17:30:00,62.1,42.0,29.88,SE,135,8.0,14.0,48,0.00,,,0.00,weatherlink.com 1.10,2013-11-20 00:30:00,
2013-11-19 17:45:00,61.6,42.0,29.87,SE,139,8.0,13.0,49,0.00,,,0.00,weatherlink.com 1.10,2013-11-20 00:45:00,
2013-11-19 18:00:00,61.1,42.0,29.87,SE,143,6.0,13.0,50,0.00,,,0.00,weatherlink.com 1.10,2013-11-20 01:00:00,
2013-11-19 18:15:00,60.8,42.0,29.87,SE,136,4.0,12.0,50,0.00,,,0.00,weatherlink.com 1.10,2013-11-20 01:15:00,
2013-11-19 18:30:00,60.6,42.0,29.86,SE,144,7.0,16.0,50,0.00,,,0.00,weatherlink.com 1.10,2013-11-20 01:30:00,
2013-11-19 18:45:00,60.4,41.0,29.86,SE,132,8.0,17.0,50,0.00,,,0.00,weatherlink.com 1.10,2013-11-20 01:45:00,
2013-11-19 19:00:00,60.3,41.0,29.86,SE,124,7.0,13.0,50,0.00,,,0.00,weatherlink.com 1.10,2013-11-20 02:00:00,
2013-11-19 19:15:00,60.3,41.0,29.86,SE,142,12.0,16.0,50,0.00,,,0.00,weatherlink.com 1.10,2013-11-20 02:15:00,
2013-11-19 19:30:00,60.3,41.0,29.85,SE,145,11.0,15.0,49,0.00,,,0.00,weatherlink.com 1.10,2013-11-20 02:30:00,
2013-11-19 19:45:00,60.2,41.0,29.86,SE,138,9.0,18.0,49,0.00,,,0.00,weatherlink.com 1.10,2013-11-20 02:45:00,
2013-11-19 20:00:00,60.2,41.0,29.86,SE,145,9.0,16.0,49,0.00,,,0.00,weatherlink.com 1.10,2013-11-20 03:00:00,
2013-11-19 20:15:00,59.7,41.0,29.86,SE,146,9.0,16.0,50,0.00,,,0.00,weatherlink.com 1.10,2013-11-20 03:15:00,
2013-11-19 20:30:00,59.3,40.0,29.87,SSE,150,6.0,15.0,50,0.00,,,0.00,weatherlink.com 1.10,2013-11-20 03:30:00,
2013-11-19 20:45:00,58.9,41.0,29.88,SSE,159,6.0,17.0,51,0.00,,,0.00,weatherlink.com 1.10,2013-11-20 03:45:00,
2013-11-19 21:00:00,58.8,41.0,29.87,SE,145,0.0,16.0,52,0.00,,,0.00,weatherlink.com 1.10,2013-11-20 04:00:00,
2013-11-19 21:15:00,58.6,41.0,29.87,SE,143,7.0,14.0,53,0.00,,,0.00,weatherlink.com 1.10,2013-11-20 04:15:00,
2013-11-19 21:30:00,58.3,41.0,29.86,SSE,152,5.0,15.0,54,0.00,,,0.00,weatherlink.com 1.10,2013-11-20 04:30:00,
2013-11-19 21:45:00,58.0,42.0,29.86,SSE,165,2.0,13.0,55,0.00,,,0.00,weatherlink.com 1.10,2013-11-20 04:45:00,
2013-11-19 22:00:00,57.7,42.0,29.86,SSE,156,4.0,11.0,56,0.00,,,0.00,weatherlink.com 1.10,2013-11-20 05:00:00,
2013-11-19 22:15:00,58.0,42.0,29.86,SSE,155,5.0,11.0,56,0.00,,,0.00,weatherlink.com 1.10,2013-11-20 05:15:00,
2013-11-19 22:30:00,58.0,42.0,29.86,SSE,158,5.0,11.0,56,0.00,,,0.00,weatherlink.com 1.10,2013-11-20 05:30:00,
2013-11-19 22:45:00,57.9,42.0,29.86,SSE,155,5.0,13.0,56,0.00,,,0.00,weatherlink.com 1.10,2013-11-20 05:45:00,
2013-11-19 23:00:00,58.1,42.0,29.86,SE,133,5.0,13.0,56,0.00,,,0.00,weatherlink.com 1.10,2013-11-20 06:00:00,
2013-11-19 23:15:00,57.9,42.0,29.85,SSE,155,6.0,17.0,56,0.00,,,0.00,weatherlink.com 1.10,2013-11-20 06:15:00,
2013-11-19 23:30:00,57.6,42.0,29.85,SSE,156,5.0,15.0,56,0.00,,,0.00,weatherlink.com 1.10,2013-11-20 06:30:00,
2013-11-19 23:45:00,57.3,42.0,29.84,SSE,165,5.0,16.0,57,0.00,,,0.00,weatherlink.com 1.10,2013-11-20 06:45:00,